VU36VU-13 Weather Reports


time (UTC)temp
F
wind
direction
speed
knots
gust
knots
rain 1hr
in
rain 24hr
in
rain mn
in
humidity
%
barometer
mb
20260505122412 88 29 13.9 46.1 0.00 0.00 0.00 32 1007.0
20260505122212 88 29 13.9 46.1 0.00 0.00 0.00 32 1007.0
20260505121812 88 29 13.9 46.1 0.00 0.00 0.00 32 1007.0
20260505121612 88 29 13.9 46.1 0.00 0.00 0.00 32 1007.0
20260505121412 89 29 15.6 47.8 0.00 0.00 0.00 32 1007.0
20260505121212 89 29 15.6 47.8 0.00 0.00 0.00 32 1007.0
20260505121017 89 29 15.6 47.8 0.00 0.00 0.00 32 1007.0
20260505120812 89 29 15.6 47.8 0.00 0.00 0.00 32 1007.0
20260505120612 89 29 15.6 47.8 0.00 0.00 0.00 32 1007.0
20260505120413 89 29 15.6 47.8 0.00 0.00 0.00 32 1007.0
20260505120213 89 29 15.6 47.8 0.00 0.00 0.00 32 1007.0
20260505120017 89 26 15.6 50.4 0.00 0.00 0.00 31 1007.0
20260505115612 89 26 15.6 50.4 0.00 0.00 0.00 31 1007.0
20260505115412 89 26 15.6 50.4 0.00 0.00 0.00 31 1007.0
20260505115212 89 26 15.6 50.4 0.00 0.00 0.00 31 1007.0
20260505115016 89 26 15.6 50.4 0.00 0.00 0.00 31 1007.0
20260505114812 89 26 15.6 50.4 0.00 0.00 0.00 31 1007.0
20260505114612 89 26 15.6 50.4 0.00 0.00 0.00 31 1007.0
20260505114412 89 20 16.5 53.0 0.00 0.00 0.00 31 1007.0
20260505114212 89 20 16.5 53.0 0.00 0.00 0.00 31 1007.0
20260505114017 89 20 16.5 53.0 0.00 0.00 0.00 31 1007.0
20260505113813 89 20 16.5 53.0 0.00 0.00 0.00 31 1007.0
20260505113412 89 20 16.5 53.0 0.00 0.00 0.00 31 1007.0
20260505113212 89 20 16.5 53.0 0.00 0.00 0.00 31 1007.0
20260505113017 89 17 16.5 56.5 0.00 0.00 0.00 31 1007.0
20260505112812 89 17 16.5 56.5 0.00 0.00 0.00 31 1007.0
20260505112612 89 17 16.5 56.5 0.00 0.00 0.00 31 1007.0
20260505112412 89 17 16.5 56.5 0.00 0.00 0.00 31 1007.0
20260505112212 89 17 16.5 56.5 0.00 0.00 0.00 31 1007.0
20260505112016 89 17 16.5 56.5 0.00 0.00 0.00 31 1007.0
20260505111812 89 17 16.5 56.5 0.00 0.00 0.00 31 1007.0
20260505111613 89 17 16.5 56.5 0.00 0.00 0.00 31 1007.0
20260505111212 89 14 17.4 58.2 0.00 0.00 0.00 31 1007.0
20260505111016 89 14 17.4 58.2 0.00 0.00 0.00 31 1007.0
20260505110812 89 14 17.4 58.2 0.00 0.00 0.00 31 1007.0
20260505110612 89 14 17.4 58.2 0.00 0.00 0.00 31 1007.0
20260505110412 89 14 17.4 58.2 0.00 0.00 0.00 31 1007.0
20260505110213 89 14 17.4 58.2 0.00 0.00 0.00 31 1007.0
20260505102213 89 15 21.7 60.8 0.00 0.00 0.00 30 1007.0
20260505102016 89 15 21.7 60.8 0.00 0.00 0.00 30 1007.0
20260505101812 89 15 21.7 60.8 0.00 0.00 0.00 30 1007.0
20260505101612 89 15 21.7 60.8 0.00 0.00 0.00 30 1007.0
20260505101412 90 16 22.6 60.8 0.00 0.00 0.00 30 1007.0
20260505101017 90 16 22.6 60.8 0.00 0.00 0.00 30 1007.0
20260505100812 90 16 22.6 60.8 0.00 0.00 0.00 30 1007.0
20260505100612 90 16 22.6 60.8 0.00 0.00 0.00 30 1007.0
20260505100412 90 16 22.6 60.8 0.00 0.00 0.00 30 1007.0
20260505100213 90 16 22.6 60.8 0.00 0.00 0.00 30 1007.0
20260505100017 90 18 22.6 60.0 0.00 0.00 0.00 30 1007.0
20260505095812 90 18 22.6 60.0 0.00 0.00 0.00 30 1007.0
20260505095612 90 18 22.6 60.0 0.00 0.00 0.00 30 1007.0
20260505095412 90 18 22.6 60.0 0.00 0.00 0.00 30 1007.0
20260505095212 90 18 22.6 60.0 0.00 0.00 0.00 30 1007.0
20260505094812 90 18 22.6 60.0 0.00 0.00 0.00 30 1007.0
20260505094612 90 18 22.6 60.0 0.00 0.00 0.00 30 1007.0
20260505094412 90 21 21.7 60.0 0.00 0.00 0.00 29 1007.0
20260505094212 90 21 21.7 60.0 0.00 0.00 0.00 29 1007.0
20260505094016 90 21 21.7 60.0 0.00 0.00 0.00 29 1007.0
20260505093812 90 21 21.7 60.0 0.00 0.00 0.00 29 1007.0
20260505093612 90 21 21.7 60.0 0.00 0.00 0.00 29 1007.0
20260505093412 90 21 21.7 60.0 0.00 0.00 0.00 29 1007.0
20260505093212 90 21 21.7 60.0 0.00 0.00 0.00 29 1007.0
20260505093017 32 0 0.0 0.0 0.00 0.00 0.00 100
20260505092341 91 23 21.7 58.2 0.00 0.00 0.00 28 1007.0
20260505092141 91 23 21.7 58.2 0.00 0.00 0.00 28 1007.0
20260505091941 91 23 21.7 58.2 0.00 0.00 0.00 28 1007.0
20260505091741 91 23 21.7 58.2 0.00 0.00 0.00 28 1007.0
20260505091541 91 23 21.7 58.2 0.00 0.00 0.00 28 1007.0
20260505091341 91 25 21.7 57.4 0.00 0.00 0.00 28 1008.0
20260505091141 91 25 21.7 57.4 0.00 0.00 0.00 28 1008.0
20260505090741 91 25 21.7 57.4 0.00 0.00 0.00 28 1008.0
20260505090541 91 25 21.7 57.4 0.00 0.00 0.00 28 1008.0
20260505090341 91 25 21.7 57.4 0.00 0.00 0.00 28 1008.0
20260505090142 91 25 21.7 57.4 0.00 0.00 0.00 28 1008.0
20260505085941 91 25 20.0 56.5 0.00 0.00 0.00 28 1008.0
20260505085741 91 25 20.0 56.5 0.00 0.00 0.00 28 1008.0
20260505085541 91 25 20.0 56.5 0.00 0.00 0.00 28 1008.0
20260505085341 91 25 20.0 56.5 0.00 0.00 0.00 28 1008.0
20260505085141 91 25 20.0 56.5 0.00 0.00 0.00 28 1008.0
20260505084942 91 25 20.0 56.5 0.00 0.00 0.00 28 1008.0
20260505084541 91 25 20.0 56.5 0.00 0.00 0.00 28 1008.0
20260505084342 91 26 19.1 53.9 0.00 0.00 0.00 28 1008.0
20260505084142 91 26 19.1 53.9 0.00 0.00 0.00 28 1008.0
20260505083941 91 30 16.5 53.9 0.00 0.00 0.00 28 1008.0
20260505083741 91 30 16.5 53.9 0.00 0.00 0.00 28 1008.0
20260505083542 91 30 16.5 53.9 0.00 0.00 0.00 28 1008.0
20260505083341 91 30 16.5 53.9 0.00 0.00 0.00 28 1008.0
20260505083141 91 30 16.5 53.9 0.00 0.00 0.00 28 1008.0
20260505082941 91 18 15.6 52.1 0.00 0.00 0.00 28 1008.0
20260505082541 91 18 15.6 52.1 0.00 0.00 0.00 28 1008.0
20260505082342 91 18 15.6 52.1 0.00 0.00 0.00 28 1008.0
20260505082141 91 18 15.6 52.1 0.00 0.00 0.00 28 1008.0
20260505081941 91 18 15.6 52.1 0.00 0.00 0.00 28 1008.0
20260505081741 91 18 15.6 52.1 0.00 0.00 0.00 28 1008.0
20260505081541 91 18 15.6 52.1 0.00 0.00 0.00 28 1008.0
20260505081342 91 12 15.6 50.4 0.00 0.00 0.00 28 1009.0
20260505081142 91 12 15.6 50.4 0.00 0.00 0.00 28 1009.0
20260505080941 91 12 15.6 50.4 0.00 0.00 0.00 28 1009.0
20260505080742 91 12 15.6 50.4 0.00 0.00 0.00 28 1009.0
20260505080341 91 12 15.6 50.4 0.00 0.00 0.00 28 1009.0
20260505080141 91 12 15.6 50.4 0.00 0.00 0.00 28 1009.0
20260505075941 91 11 14.8 50.4 0.00 0.00 0.00 28 1009.0
20260505075741 91 11 14.8 50.4 0.00 0.00 0.00 28 1009.0
20260505075541 91 11 14.8 47.8 0.00 0.00 0.00 28 1009.0
20260505075341 91 11 14.8 47.8 0.00 0.00 0.00 28 1009.0
20260505075141 91 11 14.8 47.8 0.00 0.00 0.00 28 1009.0
20260505074941 91 11 14.8 47.8 0.00 0.00 0.00 28 1009.0
20260505074742 91 11 14.8 47.8 0.00 0.00 0.00 28 1009.0
20260505074541 91 11 14.8 47.8 0.00 0.00 0.00 28 1009.0
20260505074141 91 9 14.8 46.9 0.00 0.00 0.00 28 1009.0
20260505073941 91 9 14.8 46.9 0.00 0.00 0.00 28 1009.0
20260505073741 91 9 14.8 46.9 0.00 0.00 0.00 28 1009.0
20260505073541 91 9 14.8 46.9 0.00 0.00 0.00 28 1009.0
20260505073341 91 9 14.8 46.9 0.00 0.00 0.00 28 1009.0
20260505073141 92 9 14.8 46.9 0.00 0.00 0.00 28 1009.0
20260505072941 92 7 13.9 46.1 0.00 0.00 0.00 28 1009.0
20260505072741 92 7 13.9 46.1 0.00 0.00 0.00 28 1009.0
20260505072541 92 7 13.9 46.1 0.00 0.00 0.00 28 1009.0
20260505072141 92 7 13.9 46.1 0.00 0.00 0.00 28 1009.0
20260505071941 92 7 13.9 46.1 0.00 0.00 0.00 28 1009.0
20260505071741 92 7 13.9 46.1 0.00 0.00 0.00 28 1009.0
20260505071541 92 7 13.9 46.1 0.00 0.00 0.00 28 1009.0
20260505071341 91 4 13.9 46.1 0.00 0.00 0.00 29 1010.0
20260505071141 91 4 13.9 46.1 0.00 0.00 0.00 29 1010.0
20260505070941 91 4 13.9 46.1 0.00 0.00 0.00 29 1010.0
20260505070741 91 4 13.9 46.1 0.00 0.00 0.00 28 1010.0
20260505070541 91 4 13.9 46.1 0.00 0.00 0.00 28 1010.0
20260505070342 91 4 13.9 46.1 0.00 0.00 0.00 28 1010.0
20260505065941 91 360 13.0 45.2 0.00 0.00 0.00 29 1010.0
20260505065741 91 360 13.0 45.2 0.00 0.00 0.00 29 1010.0
20260505065541 91 360 13.0 45.2 0.00 0.00 0.00 29 1010.0
20260505065341 91 360 13.0 45.2 0.00 0.00 0.00 29 1010.0
20260505065141 91 360 13.0 45.2 0.00 0.00 0.00 29 1010.0
20260505064941 91 360 13.0 45.2 0.00 0.00 0.00 29 1010.0
20260505064741 91 360 13.0 45.2 0.00 0.00 0.00 29 1010.0
20260505064541 91 360 13.0 45.2 0.00 0.00 0.00 29 1010.0
20260505064341 91 353 13.0 44.3 0.00 0.00 0.00 30 1010.0
20260505063606 91 353 13.0 44.3 0.00 0.00 0.00 30 1010.0
20260505063406 91 353 13.0 44.3 0.00 0.00 0.00 30 1010.0
20260505063206 91 353 13.0 44.3 0.00 0.00 0.00 30 1010.0
20260505063011 90 345 12.2 44.3 0.00 0.00 0.00 32 1010.0
20260505062806 90 345 12.2 44.3 0.00 0.00 0.00 32 1010.0
20260505062606 90 345 12.2 44.3 0.00 0.00 0.00 32 1010.0
20260505062406 90 345 12.2 44.3 0.00 0.00 0.00 32 1010.0
20260505062208 90 345 12.2 44.3 0.00 0.00 0.00 32 1010.0
20260505062010 90 345 12.2 44.3 0.00 0.00 0.00 32 1010.0
20260505061806 90 345 12.2 44.3 0.00 0.00 0.00 32 1010.0
20260505061406 89 337 12.2 43.4 0.00 0.00 0.00 34 1010.0
20260505061206 89 337 12.2 43.4 0.00 0.00 0.00 34 1010.0
20260505061010 89 337 12.2 43.4 0.00 0.00 0.00 34 1010.0
20260505060806 89 337 12.2 43.4 0.00 0.00 0.00 34 1010.0
20260505060606 89 337 12.2 43.4 0.00 0.00 0.00 34 1010.0
20260505060407 89 337 12.2 43.4 0.00 0.00 0.00 34 1010.0
20260505060207 89 337 12.2 43.4 0.00 0.00 0.00 34 1010.0
20260505060007 88 331 12.2 43.4 0.00 0.00 0.00 36 1011.0
20260505055806 88 331 12.2 43.4 0.00 0.00 0.00 36 1011.0
20260505055607 88 331 12.2 43.4 0.00 0.00 0.00 36 1011.0
20260505055206 88 331 12.2 43.4 0.00 0.00 0.00 36 1011.0
20260505055011 88 331 12.2 43.4 0.00 0.00 0.00 36 1011.0
20260505054806 88 331 12.2 43.4 0.00 0.00 0.00 36 1011.0
20260505054606 88 331 12.2 43.4 0.00 0.00 0.00 36 1011.0
20260505054406 87 323 12.2 43.4 0.00 0.00 0.00 38 1011.0
20260505054206 87 323 12.2 43.4 0.00 0.00 0.00 38 1011.0
20260505054010 87 323 12.2 43.4 0.00 0.00 0.00 38 1011.0
20260505053806 87 323 12.2 43.4 0.00 0.00 0.00 38 1011.0
20260505053606 87 323 12.2 43.4 0.00 0.00 0.00 38 1011.0
20260505053407 87 323 12.2 43.4 0.00 0.00 0.00 38 1011.0
20260505053006 86 315 12.2 42.6 0.00 0.00 0.00 42 1011.0
20260505052806 86 315 12.2 42.6 0.00 0.00 0.00 42 1011.0
20260505052606 86 315 12.2 42.6 0.00 0.00 0.00 42 1011.0
20260505052408 86 315 12.2 42.6 0.00 0.00 0.00 42 1011.0
20260505052206 86 315 12.2 42.6 0.00 0.00 0.00 42 1011.0
20260505052010 86 315 12.2 42.6 0.00 0.00 0.00 42 1011.0
20260505051806 86 315 12.2 42.6 0.00 0.00 0.00 42 1011.0
20260505051606 86 315 12.2 42.6 0.00 0.00 0.00 42 1011.0
20260505051407 85 308 13.0 41.7 0.00 0.00 0.00 46 1011.0
20260505051011 85 308 13.0 41.7 0.00 0.00 0.00 46 1011.0
20260505050806 85 308 13.0 41.7 0.00 0.00 0.00 46 1011.0
20260505050606 85 308 13.0 41.7 0.00 0.00 0.00 46 1011.0
20260505050406 85 308 13.0 41.7 0.00 0.00 0.00 46 1011.0
20260505050207 85 308 13.0 41.7 0.00 0.00 0.00 46 1011.0
20260505041606 80 294 12.2 37.4 0.00 0.00 0.00 59 1012.0
20260505041406 79 288 12.2 35.6 0.00 0.00 0.00 64 1012.0
20260505041206 79 288 12.2 35.6 0.00 0.00 0.00 64 1012.0
20260505041010 79 288 12.2 35.6 0.00 0.00 0.00 64 1012.0
20260505040806 79 288 12.2 35.6 0.00 0.00 0.00 64 1012.0
20260505040607 79 288 12.2 35.6 0.00 0.00 0.00 64 1012.0
20260505040207 79 288 12.2 35.6 0.00 0.00 0.00 64 1012.0
20260505040007 78 285 12.2 35.6 0.00 0.00 0.00 65 1013.0
20260505035806 78 285 12.2 35.6 0.00 0.00 0.00 65 1013.0
20260505035607 78 285 12.2 35.6 0.00 0.00 0.00 65 1013.0
20260505035407 78 285 12.2 35.6 0.00 0.00 0.00 65 1013.0
20260505035206 78 285 12.2 35.6 0.00 0.00 0.00 65 1013.0
20260505035010 78 285 12.2 35.6 0.00 0.00 0.00 65 1013.0
20260505034806 78 285 12.2 35.6 0.00 0.00 0.00 65 1013.0
20260505034606 78 285 12.2 35.6 0.00 0.00 0.00 65 1013.0
20260505034228 78 281 12.2 36.5 0.00 0.00 0.00 66 1013.0
20260505034028 78 281 12.2 36.5 0.00 0.00 0.00 66 1013.0
20260505033246 78 281 12.2 36.5 0.00 0.00 0.00 66 1013.0
20260505033046 78 281 12.2 36.5 0.00 0.00 0.00 66 1013.0
20260505032846 77 277 12.2 36.5 0.00 0.00 0.00 68 1013.0
20260505032646 77 277 12.2 36.5 0.00 0.00 0.00 68 1013.0
20260505032446 77 277 12.2 36.5 0.00 0.00 0.00 68 1013.0
20260505032246 77 277 12.2 36.5 0.00 0.00 0.00 68 1013.0
20260505032046 77 277 12.2 36.5 0.00 0.00 0.00 68 1013.0
20260505031846 77 277 12.2 36.5 0.00 0.00 0.00 68 1013.0
20260505031646 77 277 12.2 36.5 0.00 0.00 0.00 68 1013.0
20260505031446 76 273 12.2 36.5 0.00 0.00 0.00 69 1013.0
20260505031046 76 273 12.2 36.5 0.00 0.00 0.00 69 1013.0
20260505030846 76 273 12.2 36.5 0.00 0.00 0.00 69 1013.0
20260505030646 76 273 12.2 36.5 0.00 0.00 0.00 69 1013.0
20260505030446 76 273 12.2 36.5 0.00 0.00 0.00 69 1013.0
20260505030246 76 273 12.2 36.5 0.00 0.00 0.00 69 1013.0
20260505030048 76 273 12.2 36.5 0.00 0.00 0.00 69 1013.0
20260505025847 76 269 13.0 36.5 0.00 0.00 0.00 69 1013.0
20260505025646 76 269 13.0 36.5 0.00 0.00 0.00 69 1013.0
20260505025446 76 269 13.0 36.5 0.00 0.00 0.00 69 1013.0
20260505025247 76 269 13.0 36.5 0.00 0.00 0.00 69 1013.0
20260505024847 76 269 13.0 36.5 0.00 0.00 0.00 69 1013.0
20260505024646 76 269 13.0 36.5 0.00 0.00 0.00 69 1013.0
20260505024446 75 264 13.0 36.5 0.00 0.00 0.00 69 1013.0
20260505024246 75 264 13.0 36.5 0.00 0.00 0.00 69 1013.0
20260505024046 75 264 13.0 36.5 0.00 0.00 0.00 69 1013.0
20260505023846 75 264 13.0 36.5 0.00 0.00 0.00 69 1013.0
20260505023646 75 264 13.0 36.5 0.00 0.00 0.00 69 1013.0
20260505023446 75 264 13.0 36.5 0.00 0.00 0.00 69 1013.0
20260505023246 75 264 13.0 36.5 0.00 0.00 0.00 69 1013.0
20260505022846 75 259 13.9 36.5 0.00 0.00 0.00 69 1013.0
20260505022646 75 259 13.9 36.5 0.00 0.00 0.00 69 1013.0
20260505022446 75 259 13.9 36.5 0.00 0.00 0.00 69 1013.0
20260505022246 75 259 13.9 36.5 0.00 0.00 0.00 69 1013.0
20260505022046 75 259 13.9 36.5 0.00 0.00 0.00 69 1013.0
20260505021846 75 259 13.9 36.5 0.00 0.00 0.00 69 1013.0
20260505021646 75 259 13.9 36.5 0.00 0.00 0.00 69 1013.0
20260505021446 75 257 13.9 35.6 0.00 0.00 0.00 68 1013.0
20260505021246 75 257 13.9 35.6 0.00 0.00 0.00 68 1013.0
20260505020846 75 257 13.9 35.6 0.00 0.00 0.00 68 1013.0
20260505020646 75 257 13.9 35.6 0.00 0.00 0.00 68 1013.0
20260505020446 75 257 13.9 35.6 0.00 0.00 0.00 68 1013.0
20260505020246 75 257 13.9 35.6 0.00 0.00 0.00 68 1013.0
20260505020048 75 257 13.9 35.6 0.00 0.00 0.00 68 1013.0
20260505015846 74 257 13.9 33.9 0.00 0.00 0.00 68 1013.0
20260505015647 74 257 13.9 33.9 0.00 0.00 0.00 68 1013.0
20260505015446 74 257 13.9 33.9 0.00 0.00 0.00 68 1013.0
20260505015246 74 257 13.9 33.9 0.00 0.00 0.00 68 1013.0
20260505015048 74 257 13.9 33.9 0.00 0.00 0.00 68 1013.0
20260505014646 74 257 13.9 33.9 0.00 0.00 0.00 68 1013.0
20260505014446 74 259 13.0 29.5 0.00 0.00 0.00 68 1012.0
20260505014246 74 259 13.0 29.5 0.00 0.00 0.00 68 1012.0
20260505014046 74 259 13.0 29.5 0.00 0.00 0.00 68 1012.0
20260505013846 74 259 13.0 29.5 0.00 0.00 0.00 68 1012.0
20260505013646 74 259 13.0 29.5 0.00 0.00 0.00 68 1012.0
20260505013446 74 259 13.0 29.5 0.00 0.00 0.00 68 1012.0
20260505013246 74 259 13.0 29.5 0.00 0.00 0.00 68 1012.0
20260505013047 74 263 13.0 29.5 0.00 0.00 0.00 68 1012.0
20260505012646 74 260 12.2 26.9 0.00 0.00 0.00 67 1012.0
20260505012446 74 260 12.2 26.9 0.00 0.00 0.00 67 1012.0
20260505012246 74 260 12.2 26.9 0.00 0.00 0.00 67 1012.0
20260505012046 74 260 12.2 26.9 0.00 0.00 0.00 67 1012.0
20260505011846 74 264 20.0 26.9 0.00 0.00 0.00 67 1012.0
20260505011646 74 264 20.0 26.9 0.00 0.00 0.00 67 1012.0
20260505011446 73 262 20.0 25.2 0.00 0.00 0.00 67 1012.0
20260505011246 73 262 20.0 25.2 0.00 0.00 0.00 67 1012.0
20260505011046 73 262 20.0 44.3 0.00 0.00 0.00 67 1012.0
20260505010847 73 262 20.0 44.3 0.00 0.00 0.00 67 1012.0
20260505010247 73 262 20.0 44.3 0.00 0.00 0.00 67 1012.0
20260505005447 73 262 18.2 41.7 0.00 0.00 0.00 67 1012.0
20260505005247 73 262 18.2 41.7 0.00 0.00 0.00 67 1012.0
20260505004846 73 262 18.2 41.7 0.00 0.00 0.00 67 1012.0
20260505004446 73 260 15.6 40.0 0.00 0.00 0.00 67 1012.0
20260505004246 73 260 15.6 40.0 0.00 0.00 0.00 67 1012.0
20260505004046 73 260 15.6 40.0 0.00 0.00 0.00 67 1012.0
20260505003846 73 260 15.6 40.0 0.00 0.00 0.00 67 1012.0
20260505003646 73 260 15.6 40.0 0.00 0.00 0.00 67 1012.0
20260505003446 73 260 15.6 40.0 0.00 0.00 0.00 67 1012.0
20260505003246 73 260 15.6 40.0 0.00 0.00 0.00 67 1012.0
20260505003046 73 260 15.6 40.0 0.00 0.00 0.00 67 1012.0
20260505002846 73 256 13.9 38.2 0.00 0.00 0.00 66 1011.0
20260505002646 73 256 13.9 38.2 0.00 0.00 0.00 66 1011.0
20260505002247 73 256 13.9 38.2 0.00 0.00 0.00 66 1011.0
20260505002047 73 256 13.9 38.2 0.00 0.00 0.00 66 1011.0
20260505001847 73 256 13.9 38.2 0.00 0.00 0.00 66 1011.0
20260505001647 73 256 13.9 38.2 0.00 0.00 0.00 66 1011.0
20260505001447 73 252 12.2 36.5 0.00 0.00 0.00 66 1011.0
20260505001247 73 252 12.2 36.5 0.00 0.00 0.00 66 1011.0
20260505001047 73 252 12.2 36.5 0.00 0.00 0.00 66 1011.0
20260505000846 73 252 12.2 36.5 0.00 0.00 0.00 66 1011.0
20260505000647 73 252 12.2 36.5 0.00 0.00 0.00 66 1011.0
20260505000447 73 252 12.2 36.5 0.00 0.00 0.00 66 1011.0
20260505000049 73 252 12.2 36.5 0.00 0.00 0.00 79 1011.0
20260504235847 73 246 13.0 38.2 0.00 0.00 0.00 78 1011.0
20260504235647 73 246 13.0 38.2 0.00 0.00 0.00 78 1011.0
20260504235447 73 246 13.0 38.2 0.00 0.00 0.00 78 1011.0
20260504235247 73 246 13.0 38.2 0.00 0.00 0.00 78 1011.0
20260504235047 73 246 13.0 38.2 0.00 0.00 0.00 78 1011.0
20260504234847 73 246 13.0 38.2 0.00 0.00 0.00 78 1011.0
20260504234647 73 246 13.0 38.2 0.00 0.00 0.00 78 1011.0
20260504234447 74 239 13.9 40.0 0.00 0.00 0.00 77 1011.0
20260504234248 74 239 13.9 40.0 0.00 0.00 0.00 77 1011.0
20260504233846 74 239 13.9 40.0 0.00 0.00 0.00 77 1011.0
20260504233646 74 239 13.9 40.0 0.00 0.00 0.00 77 1011.0
20260504233446 74 239 13.9 40.0 0.00 0.00 0.00 77 1011.0
20260504233246 74 239 13.9 40.0 0.00 0.00 0.00 77 1011.0
20260504233046 74 239 13.9 40.0 0.00 0.00 0.00 77 1011.0
20260504232847 74 233 15.6 41.7 0.00 0.00 0.00 75 1011.0
20260504232646 74 233 15.6 41.7 0.00 0.00 0.00 75 1011.0
20260504232446 74 233 15.6 41.7 0.00 0.00 0.00 75 1011.0
20260504232246 74 233 15.6 41.7 0.00 0.00 0.00 75 1011.0
20260504232047 74 233 15.6 41.7 0.00 0.00 0.00 75 1011.0
20260504231646 74 233 15.6 41.7 0.00 0.00 0.00 75 1011.0
20260504231447 74 229 16.5 42.6 0.00 0.00 0.00 73 1010.0
20260504231246 74 229 16.5 42.6 0.00 0.00 0.00 73 1010.0
20260504231046 74 229 16.5 42.6 0.00 0.00 0.00 73 1010.0
20260504230846 74 229 16.5 42.6 0.00 0.00 0.00 73 1010.0
20260504230646 74 229 16.5 42.6 0.00 0.00 0.00 73 1010.0
20260504230447 74 229 16.5 42.6 0.00 0.00 0.00 73 1010.0
20260504230246 74 229 16.5 42.6 0.00 0.00 0.00 73 1010.0
20260504230048 74 229 16.5 42.6 0.00 0.00 0.00 73 1010.0
20260504225647 74 228 17.4 42.6 0.00 0.00 0.00 71 1010.0
20260504225447 74 228 17.4 42.6 0.00 0.00 0.00 71 1010.0
20260504225247 74 228 17.4 42.6 0.00 0.00 0.00 71 1010.0
20260504225047 74 228 17.4 42.6 0.00 0.00 0.00 71 1010.0
20260504224847 74 228 17.4 42.6 0.00 0.00 0.00 71 1010.0
20260504224647 74 228 17.4 42.6 0.00 0.00 0.00 71 1010.0
20260504224447 74 228 18.2 42.6 0.00 0.00 0.00 69 1010.0
20260504224247 74 228 18.2 42.6 0.00 0.00 0.00 69 1010.0
20260504224047 74 228 18.2 42.6 0.00 0.00 0.00 69 1010.0
20260504223847 74 228 18.2 42.6 0.00 0.00 0.00 69 1010.0
20260504223447 74 228 18.2 42.6 0.00 0.00 0.00 69 1010.0
20260504223247 74 228 18.2 42.6 0.00 0.00 0.00 69 1010.0
20260504223047 74 228 18.2 42.6 0.00 0.00 0.00 69 1010.0
20260504222847 74 228 19.1 42.6 0.00 0.00 0.00 67 1010.0
20260504222647 74 228 19.1 42.6 0.00 0.00 0.00 67 1010.0
20260504222447 74 228 19.1 42.6 0.00 0.00 0.00 67 1010.0
20260504222247 74 228 19.1 42.6 0.00 0.00 0.00 67 1010.0
20260504222047 74 228 19.1 42.6 0.00 0.00 0.00 67 1010.0
20260504221847 74 228 19.1 42.6 0.00 0.00 0.00 67 1010.0
20260504221647 74 228 19.1 42.6 0.00 0.00 0.00 67 1010.0
20260504221246 75 227 19.1 41.7 0.00 0.00 0.00 66 1010.0
20260504221048 75 227 19.1 41.7 0.00 0.00 0.00 66 1010.0
20260504220846 75 227 19.1 41.7 0.00 0.00 0.00 66 1010.0
20260504220647 75 227 19.1 41.7 0.00 0.00 0.00 66 1010.0
20260504220447 75 227 19.1 41.7 0.00 0.00 0.00 66 1010.0
20260504220247 75 227 19.1 41.7 0.00 0.00 0.00 66 1010.0
20260504220048 75 227 19.1 41.7 0.00 0.00 0.00 66 1010.0
20260504215846 75 227 18.2 40.8 0.00 0.00 0.00 65 1010.0
20260504215646 75 227 18.2 40.8 0.00 0.00 0.00 65 1010.0
20260504215448 75 227 18.2 40.8 0.00 0.00 0.00 65 1010.0
20260504215047 75 227 18.2 40.8 0.00 0.00 0.00 65 1010.0
20260504214847 75 227 18.2 40.8 0.00 0.00 0.00 65 1010.0
20260504214647 75 227 18.2 40.8 0.00 0.00 0.00 65 1010.0
20260504214447 75 226 18.2 40.0 0.00 0.00 0.00 64 1010.0
20260504214247 75 226 18.2 40.0 0.00 0.00 0.00 64 1010.0
20260504214047 75 226 18.2 40.0 0.00 0.00 0.00 64 1010.0
20260504213847 75 226 18.2 40.0 0.00 0.00 0.00 64 1010.0
20260504213647 75 226 18.2 40.0 0.00 0.00 0.00 64 1010.0
20260504213447 75 226 18.2 40.0 0.00 0.00 0.00 64 1010.0
20260504213249 75 226 18.2 40.0 0.00 0.00 0.00 64 1010.0
20260504213047 75 226 18.2 40.0 0.00 0.00 0.00 64 1010.0
20260504212647 75 226 17.4 38.2 0.00 0.00 0.00 63 1010.0
20260504212447 75 226 17.4 38.2 0.00 0.00 0.00 63 1010.0
20260504212247 75 226 17.4 38.2 0.00 0.00 0.00 63 1010.0
20260504212047 75 226 17.4 38.2 0.00 0.00 0.00 63 1010.0
20260504211846 75 226 17.4 38.2 0.00 0.00 0.00 63 1010.0
20260504211646 75 226 17.4 38.2 0.00 0.00 0.00 63 1010.0
20260504211447 76 224 16.5 35.6 0.00 0.00 0.00 62 1010.0
20260504211247 76 224 16.5 35.6 0.00 0.00 0.00 62 1010.0
20260504211047 76 224 16.5 35.6 0.00 0.00 0.00 62 1010.0
20260504210847 76 224 16.5 35.6 0.00 0.00 0.00 62 1010.0
20260504210447 76 224 16.5 35.6 0.00 0.00 0.00 62 1010.0
20260504210247 76 224 16.5 35.6 0.00 0.00 0.00 62 1010.0
20260504210048 76 224 16.5 35.6 0.00 0.00 0.00 62 1010.0
20260504205847 76 223 15.6 33.9 0.00 0.00 0.00 62 1010.0
20260504205647 76 223 15.6 33.9 0.00 0.00 0.00 62 1010.0
20260504205447 76 223 15.6 33.9 0.00 0.00 0.00 62 1010.0
20260504205247 76 223 15.6 33.9 0.00 0.00 0.00 62 1010.0
20260504205047 76 223 15.6 33.9 0.00 0.00 0.00 62 1010.0
20260504204847 76 223 15.6 33.9 0.00 0.00 0.00 62 1010.0
20260504204648 76 223 15.6 33.9 0.00 0.00 0.00 62 1010.0
20260504204247 76 221 14.8 32.2 0.00 0.00 0.00 62 1010.0
20260504204047 76 221 14.8 32.2 0.00 0.00 0.00 62 1010.0
20260504203847 76 221 14.8 32.2 0.00 0.00 0.00 62 1010.0
20260504203647 76 221 14.8 32.2 0.00 0.00 0.00 62 1010.0
20260504203447 76 221 14.8 32.2 0.00 0.00 0.00 62 1010.0
20260504203247 76 221 14.8 32.2 0.00 0.00 0.00 62 1010.0
20260504203047 76 221 14.8 32.2 0.00 0.00 0.00 62 1010.0
20260504202847 76 219 13.9 29.5 0.00 0.00 0.00 62 1010.0
20260504202647 76 219 13.9 29.5 0.00 0.00 0.00 62 1010.0
20260504202247 76 214 15.6 29.5 0.00 0.00 0.00 62 1010.0
20260504202047 76 214 15.6 29.5 0.00 0.00 0.00 62 1010.0
20260504201847 76 214 15.6 29.5 0.00 0.00 0.00 62 1010.0
20260504201647 76 214 15.6 29.5 0.00 0.00 0.00 62 1010.0
20260504201447 76 209 15.6 27.8 0.00 0.00 0.00 62 1010.0
20260504201247 76 209 15.6 27.8 0.00 0.00 0.00 62 1010.0
20260504201047 76 209 15.6 27.8 0.00 0.00 0.00 62 1010.0
20260504200847 76 209 15.6 27.8 0.00 0.00 0.00 62 1010.0
20260504200647 76 209 15.6 27.8 0.00 0.00 0.00 62 1010.0
20260504200448 76 209 15.6 27.8 0.00 0.00 0.00 62 1010.0
20260504200048 76 209 15.6 27.8 0.00 0.00 0.00 62 1010.0
20260504195847 76 192 15.6 27.8 0.00 0.00 0.00 62 1010.0
20260504195647 76 192 15.6 27.8 0.00 0.00 0.00 62 1010.0
20260504195447 76 192 15.6 27.8 0.00 0.00 0.00 62 1010.0
20260504195247 76 192 15.6 27.8 0.00 0.00 0.00 62 1010.0
20260504195047 76 192 15.6 27.8 0.00 0.00 0.00 62 1010.0
20260504194847 76 192 15.6 27.8 0.00 0.00 0.00 62 1010.0
20260504194647 76 192 15.6 27.8 0.00 0.00 0.00 62 1010.0
20260504194447 76 193 17.4 27.8 0.00 0.00 0.00 62 1011.0
20260504194247 76 193 17.4 27.8 0.00 0.00 0.00 62 1011.0
20260504191447 77 195 20.0 46.9 0.00 0.00 0.00 60 1011.0
20260504191247 77 195 20.0 46.9 0.00 0.00 0.00 60 1011.0
20260504191047 77 195 20.0 46.9 0.00 0.00 0.00 63 1011.0
20260504190847 77 195 20.0 46.9 0.00 0.00 0.00 63 1011.0
20260504190647 77 195 20.0 46.9 0.00 0.00 0.00 63 1011.0
20260504190447 77 195 20.0 46.9 0.00 0.00 0.00 63 1011.0
20260504190247 77 195 20.0 46.9 0.00 0.00 0.00 63 1011.0
20260504190048 77 195 20.0 46.9 0.00 0.00 0.00 63 1011.0
20260504185847 77 195 20.0 45.2 0.00 0.02 0.00 63 1011.0
20260504185647 77 195 20.0 45.2 0.00 0.02 0.00 63 1011.0
20260504183247 77 195 20.0 43.4 0.00 0.02 0.00 62 1012.0
20260504183048 77 195 20.0 43.4 0.00 0.02 0.00 62 1012.0
20260504182846 77 195 20.0 40.8 0.00 0.02 0.00 61 1012.0
20260504182646 77 195 20.0 40.8 0.00 0.02 0.00 61 1012.0
20260504182447 77 195 20.0 40.8 0.00 0.02 0.00 61 1012.0
20260504182248 77 195 20.0 40.8 0.00 0.02 0.00 61 1012.0
20260504182048 77 195 20.0 40.8 0.00 0.02 0.00 61 1012.0
20260504181646 77 195 20.0 40.8 0.00 0.02 0.00 61 1012.0
20260504181446 78 191 19.1 39.1 0.00 0.02 0.00 60 1012.0
20260504181246 78 191 19.1 39.1 0.00 0.02 0.00 60 1012.0
20260504181047 78 191 19.1 39.1 0.00 0.02 0.00 60 1012.0
20260504180846 78 191 19.1 39.1 0.00 0.02 0.00 60 1012.0
20260504180646 78 191 19.1 39.1 0.00 0.02 0.00 60 1012.0
20260504180447 78 191 19.1 39.1 0.00 0.02 0.00 60 1012.0
20260504180247 78 191 19.1 39.1 0.00 0.02 0.00 60 1012.0
20260504180049 78 191 19.1 39.1 0.00 0.02 0.00 60 1012.0
20260504175549 78 184 18.2 39.1 0.00 0.02 0.00 59 1012.0
20260504175348 78 184 18.2 39.1 0.00 0.02 0.00 59 1012.0
20260504175148 78 184 18.2 39.1 0.00 0.02 0.00 59 1012.0
20260504174949 78 184 18.2 39.1 0.00 0.02 0.00 59 1012.0
20260504174749 78 184 18.2 39.1 0.00 0.02 0.00 59 1012.0
20260504174548 78 184 18.2 39.1 0.00 0.02 0.00 59 1012.0
20260504174349 78 172 17.4 39.1 0.00 0.02 0.00 58 1012.0
20260504173609 78 172 17.4 39.1 0.00 0.02 0.00 58 1012.0
20260504173409 78 172 17.4 39.1 0.00 0.02 0.00 58 1012.0
20260504173209 78 172 17.4 39.1 0.00 0.02 0.00 58 1012.0
20260504172630 78 158 16.5 38.2 0.00 0.02 0.00 58 1012.0
20260504172430 78 158 16.5 38.2 0.00 0.02 0.00 58 1012.0
20260504172230 78 158 16.5 38.2 0.00 0.02 0.00 58 1012.0
20260504171831 78 158 16.5 38.2 0.00 0.02 0.00 58 1012.0
20260504171631 78 158 16.5 38.2 0.00 0.02 0.00 58 1012.0
20260504171431 79 145 16.5 38.2 0.00 0.02 0.00 56 1012.0
20260504171231 79 145 16.5 38.2 0.00 0.02 0.00 56 1012.0
20260504171031 79 145 16.5 38.2 0.00 0.02 0.00 56 1012.0
20260504170831 79 145 16.5 38.2 0.00 0.02 0.00 56 1012.0
20260504170631 79 145 16.5 38.2 0.00 0.02 0.00 56 1012.0
20260504170431 79 145 16.5 38.2 0.00 0.02 0.00 56 1012.0
20260504170231 79 145 16.5 38.2 0.00 0.02 0.00 56 1012.0
20260504160431 81 107 17.4 35.6 0.00 0.02 0.00 50 1011.0
20260504160231 81 107 17.4 35.6 0.00 0.02 0.00 50 1011.0
20260504150831 83 148 11.3 26.1 0.00 0.02 0.00 40 1010.0
20260504150634 83 148 11.3 26.1 0.00 0.02 0.00 40 1010.0
20260504150431 83 148 11.3 26.1 0.00 0.02 0.00 40 1010.0
20260504150231 83 148 11.3 26.1 0.00 0.02 0.00 40 1010.0
20260504141231 87 342 5.2 22.6 0.00 0.02 0.00 31 1009.0
20260504141031 87 342 5.2 22.6 0.00 0.02 0.00 31 1009.0
20260504140831 87 342 5.2 22.6 0.00 0.02 0.00 31 1009.0
20260504140336 87 302 10.4 22.6 0.00 0.02 0.00 31 1009.0
20260504140137 87 302 10.4 22.6 0.00 0.02 0.00 31 1009.0
20260504130736 90 348 13.9 44.3 0.00 0.02 0.00 27 1007.0
20260504130536 90 348 13.9 44.3 0.00 0.02 0.00 27 1007.0
20260504130137 90 348 13.9 44.3 0.00 0.02 0.00 27 1007.0